![]() |
EMODnet Physics ERDDAP
Easier access to scientific data |
log in|
Brought to you by EMODnet Physics |
| Dataset Title: | NDBC - Collection of dew point temperature (DEWT) TimeSeries - IN SITU MultiPointTimeSeriesObservation
|
| Institution: | NDBC (Dataset ID: TS_DEWT_NDBC) |
| Information: | Summary
| License
| FGDC
| ISO 19115
| Metadata
| Background
| Subset
| Data Access Form
| Make a graph
|
| Name | Last modified | Size | Description | |
|---|---|---|---|---|
| Parent Directory | - | - | ||
| 46078_TS_DEWT_012005.nc | 19-Jan-2026 20:15 | 425796 | ||
| 46078_TS_DEWT_012008.nc | 19-Jan-2026 20:28 | 429689 | ||
| 46078_TS_DEWT_012009.nc | 19-Jan-2026 20:31 | 429696 | ||
| 46078_TS_DEWT_012011.nc | 19-Jan-2026 20:33 | 429687 | ||
| 46078_TS_DEWT_012012.nc | 19-Jan-2026 20:36 | 429688 | ||
| 46078_TS_DEWT_012017.nc | 19-Jan-2026 20:44 | 429696 | ||
| 46078_TS_DEWT_012018.nc | 19-Jan-2026 20:46 | 429689 | ||
| 46078_TS_DEWT_012020.nc | 19-Jan-2026 20:52 | 429688 | ||
| 46078_TS_DEWT_012024.nc | 19-Jan-2026 21:09 | 429699 | ||
| 46078_TS_DEWT_012025.nc | 19-Jan-2026 21:15 | 420351 | ||
| 46078_TS_DEWT_022005.nc | 19-Jan-2026 20:15 | 429694 | ||
| 46078_TS_DEWT_022008.nc | 19-Jan-2026 20:29 | 429700 | ||
| 46078_TS_DEWT_022014.nc | 19-Jan-2026 20:38 | 429687 | ||
| 46078_TS_DEWT_022017.nc | 19-Jan-2026 20:44 | 429916 | ||
| 46078_TS_DEWT_022018.nc | 19-Jan-2026 20:47 | 429912 | ||
| 46078_TS_DEWT_022020.nc | 19-Jan-2026 20:52 | 429893 | ||
| 46078_TS_DEWT_022024.nc | 19-Jan-2026 21:09 | 429896 | ||
| 46078_TS_DEWT_022025.nc | 19-Jan-2026 21:15 | 428089 | ||
| 46078_TS_DEWT_032005.nc | 19-Jan-2026 20:16 | 429858 | ||
| 46078_TS_DEWT_032008.nc | 19-Jan-2026 20:29 | 429914 | ||
| 46078_TS_DEWT_032011.nc | 19-Jan-2026 20:33 | 429909 | ||
| 46078_TS_DEWT_032014.nc | 19-Jan-2026 20:38 | 429916 | ||
| 46078_TS_DEWT_032017.nc | 19-Jan-2026 20:45 | 429912 | ||
| 46078_TS_DEWT_032018.nc | 19-Jan-2026 20:47 | 429912 | ||
| 46078_TS_DEWT_032020.nc | 19-Jan-2026 20:53 | 429912 | ||
| 46078_TS_DEWT_032024.nc | 19-Jan-2026 21:10 | 429915 | ||
| 46078_TS_DEWT_032025.nc | 19-Jan-2026 21:15 | 429912 | ||
| 46078_TS_DEWT_042005.nc | 19-Jan-2026 20:16 | 429914 | ||
| 46078_TS_DEWT_042006.nc | 19-Jan-2026 20:21 | 429907 | ||
| 46078_TS_DEWT_042008.nc | 19-Jan-2026 20:29 | 429912 | ||
| 46078_TS_DEWT_042011.nc | 19-Jan-2026 20:34 | 429783 | ||
| 46078_TS_DEWT_042014.nc | 19-Jan-2026 20:38 | 429910 | ||
| 46078_TS_DEWT_042017.nc | 19-Jan-2026 20:45 | 429916 | ||
| 46078_TS_DEWT_042018.nc | 19-Jan-2026 20:47 | 429681 | ||
| 46078_TS_DEWT_042020.nc | 19-Jan-2026 20:53 | 429676 | ||
| 46078_TS_DEWT_042024.nc | 19-Jan-2026 21:10 | 429679 | ||
| 46078_TS_DEWT_042025.nc | 19-Jan-2026 21:16 | 429697 | ||
| 46078_TS_DEWT_052004.nc | 23-Dec-2024 23:26 | 429689 | ||
| 46078_TS_DEWT_052005.nc | 19-Jan-2026 20:16 | 429592 | ||
| 46078_TS_DEWT_052008.nc | 19-Jan-2026 20:29 | 429694 | ||
| 46078_TS_DEWT_052011.nc | 19-Jan-2026 20:34 | 429646 | ||
| 46078_TS_DEWT_052017.nc | 19-Jan-2026 20:45 | 429678 | ||
| 46078_TS_DEWT_052018.nc | 19-Jan-2026 20:47 | 429698 | ||
| 46078_TS_DEWT_052020.nc | 19-Jan-2026 20:53 | 429687 | ||
| 46078_TS_DEWT_052024.nc | 19-Jan-2026 21:11 | 429688 | ||
| 46078_TS_DEWT_052025.nc | 19-Jan-2026 21:16 | 429695 | ||
| 46078_TS_DEWT_062004.nc | 23-Dec-2024 23:27 | 429691 | ||
| 46078_TS_DEWT_062005.nc | 19-Jan-2026 20:17 | 429688 | ||
| 46078_TS_DEWT_062008.nc | 19-Jan-2026 20:29 | 423807 | ||
| 46078_TS_DEWT_062011.nc | 19-Jan-2026 20:34 | 429695 | ||
| 46078_TS_DEWT_062015.nc | 19-Jan-2026 20:41 | 429699 | ||
| 46078_TS_DEWT_062016.nc | 19-Jan-2026 20:43 | 429911 | ||
| 46078_TS_DEWT_062017.nc | 19-Jan-2026 20:45 | 429895 | ||
| 46078_TS_DEWT_062018.nc | 19-Jan-2026 20:47 | 428991 | ||
| 46078_TS_DEWT_062020.nc | 19-Jan-2026 20:53 | 428899 | ||
| 46078_TS_DEWT_062021.nc | 19-Jan-2026 20:57 | 424106 | ||
| 46078_TS_DEWT_062022.nc | 19-Jan-2026 20:59 | 429915 | ||
| 46078_TS_DEWT_062023.nc | 19-Jan-2026 21:05 | 429907 | ||
| 46078_TS_DEWT_062024.nc | 19-Jan-2026 21:11 | 429914 | ||
| 46078_TS_DEWT_062025.nc | 19-Jan-2026 21:17 | 429911 | ||
| 46078_TS_DEWT_072004.nc | 23-Dec-2024 23:27 | 429907 | ||
| 46078_TS_DEWT_072005.nc | 19-Jan-2026 20:17 | 429915 | ||
| 46078_TS_DEWT_072008.nc | 19-Jan-2026 20:30 | 429891 | ||
| 46078_TS_DEWT_072011.nc | 19-Jan-2026 20:34 | 429910 | ||
| 46078_TS_DEWT_072015.nc | 19-Jan-2026 20:41 | 429915 | ||
| 46078_TS_DEWT_072016.nc | 19-Jan-2026 20:43 | 418871 | ||
| 46078_TS_DEWT_072017.nc | 19-Jan-2026 20:45 | 429912 | ||
| 46078_TS_DEWT_072018.nc | 19-Jan-2026 20:47 | 429893 | ||
| 46078_TS_DEWT_072020.nc | 19-Jan-2026 20:54 | 429914 | ||
| 46078_TS_DEWT_072021.nc | 19-Jan-2026 20:57 | 429914 | ||
| 46078_TS_DEWT_072022.nc | 19-Jan-2026 20:59 | 429909 | ||
| 46078_TS_DEWT_072023.nc | 19-Jan-2026 21:06 | 429334 | ||
| 46078_TS_DEWT_072024.nc | 19-Jan-2026 21:11 | 429298 | ||
| 46078_TS_DEWT_072025.nc | 19-Jan-2026 21:17 | 429342 | ||
| 46078_TS_DEWT_082004.nc | 23-Dec-2024 23:27 | 428854 | ||
| 46078_TS_DEWT_082005.nc | 19-Jan-2026 20:18 | 428429 | ||
| 46078_TS_DEWT_082007.nc | 19-Jan-2026 20:26 | 429317 | ||
| 46078_TS_DEWT_082008.nc | 19-Jan-2026 20:30 | 429364 | ||
| 46078_TS_DEWT_082009.nc | 19-Jan-2026 20:31 | 429365 | ||
| 46078_TS_DEWT_082011.nc | 19-Jan-2026 20:35 | 429359 | ||
| 46078_TS_DEWT_082013.nc | 19-Jan-2026 20:36 | 429343 | ||
| 46078_TS_DEWT_082015.nc | 19-Jan-2026 20:42 | 429370 | ||
| 46078_TS_DEWT_082016.nc | 19-Jan-2026 20:43 | 429364 | ||
| 46078_TS_DEWT_082017.nc | 19-Jan-2026 20:45 | 429364 | ||
| 46078_TS_DEWT_082018.nc | 19-Jan-2026 20:48 | 429365 | ||
| 46078_TS_DEWT_082019.nc | 19-Jan-2026 20:51 | 429370 | ||
| 46078_TS_DEWT_082020.nc | 19-Jan-2026 20:54 | 428073 | ||
| 46078_TS_DEWT_082021.nc | 19-Jan-2026 20:57 | 429361 | ||
| 46078_TS_DEWT_082022.nc | 19-Jan-2026 21:00 | 429365 | ||
| 46078_TS_DEWT_082023.nc | 19-Jan-2026 21:06 | 429566 | ||
| 46078_TS_DEWT_082024.nc | 19-Jan-2026 21:12 | 428136 | ||
| 46078_TS_DEWT_082025.nc | 19-Jan-2026 21:18 | 428697 | ||
| 46078_TS_DEWT_092005.nc | 19-Jan-2026 20:18 | 429572 | ||
| 46078_TS_DEWT_092007.nc | 19-Jan-2026 20:27 | 423655 | ||
| 46078_TS_DEWT_092008.nc | 19-Jan-2026 20:30 | 429568 | ||
| 46078_TS_DEWT_092009.nc | 19-Jan-2026 20:31 | 429571 | ||
| 46078_TS_DEWT_092010.nc | 19-Jan-2026 20:32 | 429571 | ||
| 46078_TS_DEWT_092011.nc | 19-Jan-2026 20:35 | 429570 | ||
| 46078_TS_DEWT_092013.nc | 19-Jan-2026 20:36 | 429571 | ||
| 46078_TS_DEWT_092015.nc | 19-Jan-2026 20:42 | 429568 | ||
| 46078_TS_DEWT_092016.nc | 19-Jan-2026 20:43 | 429571 | ||
| 46078_TS_DEWT_092017.nc | 19-Jan-2026 20:46 | 429571 | ||
| 46078_TS_DEWT_092018.nc | 19-Jan-2026 20:48 | 429569 | ||
| 46078_TS_DEWT_092019.nc | 19-Jan-2026 20:51 | 429574 | ||
| 46078_TS_DEWT_092020.nc | 19-Jan-2026 20:54 | 429569 | ||
| 46078_TS_DEWT_092021.nc | 19-Jan-2026 20:57 | 429572 | ||
| 46078_TS_DEWT_092022.nc | 19-Jan-2026 21:00 | 429571 | ||
| 46078_TS_DEWT_092023.nc | 19-Jan-2026 21:07 | 429567 | ||
| 46078_TS_DEWT_092024.nc | 19-Jan-2026 21:13 | 429574 | ||
| 46078_TS_DEWT_092025.nc | 19-Jan-2026 21:19 | 421360 | ||
| 46078_TS_DEWT_102004.nc | 19-Jan-2026 20:13 | 429680 | ||
| 46078_TS_DEWT_102005.nc | 19-Jan-2026 20:18 | 429398 | ||
| 46078_TS_DEWT_102007.nc | 19-Jan-2026 20:27 | 429683 | ||
| 46078_TS_DEWT_102008.nc | 19-Jan-2026 20:30 | 429693 | ||
| 46078_TS_DEWT_102009.nc | 19-Jan-2026 20:32 | 424444 | ||
| 46078_TS_DEWT_102010.nc | 19-Jan-2026 20:32 | 429676 | ||
| 46078_TS_DEWT_102011.nc | 19-Jan-2026 20:35 | 429688 | ||
| 46078_TS_DEWT_102013.nc | 19-Jan-2026 20:37 | 429689 | ||
| 46078_TS_DEWT_102015.nc | 19-Jan-2026 20:42 | 429084 | ||
| 46078_TS_DEWT_102016.nc | 19-Jan-2026 20:44 | 429688 | ||
| 46078_TS_DEWT_102017.nc | 19-Jan-2026 20:46 | 429686 | ||
| 46078_TS_DEWT_102018.nc | 19-Jan-2026 20:48 | 429697 | ||
| 46078_TS_DEWT_102019.nc | 19-Jan-2026 20:51 | 429687 | ||
| 46078_TS_DEWT_102020.nc | 19-Jan-2026 20:55 | 427654 | ||
| 46078_TS_DEWT_102021.nc | 19-Jan-2026 20:58 | 429692 | ||
| 46078_TS_DEWT_102022.nc | 19-Jan-2026 21:01 | 423078 | ||
| 46078_TS_DEWT_102023.nc | 19-Jan-2026 21:07 | 423428 | ||
| 46078_TS_DEWT_102024.nc | 19-Jan-2026 21:13 | 429699 | ||
| 46078_TS_DEWT_102025.nc | 19-Jan-2026 21:19 | 429701 | ||
| 46078_TS_DEWT_112004.nc | 19-Jan-2026 20:14 | 429692 | ||
| 46078_TS_DEWT_112005.nc | 19-Jan-2026 20:19 | 429909 | ||
| 46078_TS_DEWT_112007.nc | 19-Jan-2026 20:28 | 429644 | ||
| 46078_TS_DEWT_112008.nc | 19-Jan-2026 20:30 | 429439 | ||
| 46078_TS_DEWT_112010.nc | 19-Jan-2026 20:33 | 429815 | ||
| 46078_TS_DEWT_112011.nc | 19-Jan-2026 20:35 | 427924 | ||
| 46078_TS_DEWT_112013.nc | 19-Jan-2026 20:37 | 429909 | ||
| 46078_TS_DEWT_112015.nc | 19-Jan-2026 20:42 | 429913 | ||
| 46078_TS_DEWT_112016.nc | 19-Jan-2026 20:44 | 429913 | ||
| 46078_TS_DEWT_112017.nc | 19-Jan-2026 20:46 | 429907 | ||
| 46078_TS_DEWT_112019.nc | 19-Jan-2026 20:52 | 429914 | ||
| 46078_TS_DEWT_112020.nc | 19-Jan-2026 20:55 | 429914 | ||
| 46078_TS_DEWT_112021.nc | 19-Jan-2026 20:58 | 429910 | ||
| 46078_TS_DEWT_112022.nc | 19-Jan-2026 21:01 | 429917 | ||
| 46078_TS_DEWT_112023.nc | 19-Jan-2026 21:08 | 429909 | ||
| 46078_TS_DEWT_112024.nc | 19-Jan-2026 21:13 | 429912 | ||
| 46078_TS_DEWT_112025.nc | 19-Jan-2026 21:20 | 429910 | ||
| 46078_TS_DEWT_122007.nc | 19-Jan-2026 20:28 | 429911 | ||
| 46078_TS_DEWT_122008.nc | 19-Jan-2026 20:31 | 429892 | ||
| 46078_TS_DEWT_122010.nc | 19-Jan-2026 20:33 | 429915 | ||
| 46078_TS_DEWT_122011.nc | 19-Jan-2026 20:36 | 429912 | ||
| 46078_TS_DEWT_122013.nc | 19-Jan-2026 20:37 | 429345 | ||
| 46078_TS_DEWT_122015.nc | 19-Jan-2026 20:42 | 429354 | ||
| 46078_TS_DEWT_122016.nc | 19-Jan-2026 20:44 | 429347 | ||
| 46078_TS_DEWT_122017.nc | 19-Jan-2026 20:46 | 429351 | ||
| 46078_TS_DEWT_122019.nc | 19-Jan-2026 20:52 | 429369 | ||
| 46078_TS_DEWT_122020.nc | 19-Jan-2026 20:55 | 429363 | ||
| 46078_TS_DEWT_122021.nc | 19-Jan-2026 20:58 | 429254 | ||
| 46078_TS_DEWT_122023.nc | 19-Jan-2026 21:08 | 429016 | ||
| 46078_TS_DEWT_122024.nc | 19-Jan-2026 21:14 | 429368 | ||
| 46078_TS_DEWT_122025.nc | 19-Jan-2026 21:20 | 429365 | ||